Time,TemperatureF,DewpointF,PressureIn,WindDirection,WindDirectionDegrees,WindSpeedMPH,WindSpeedGustMPH,Humidity,HourlyPrecipIn,Conditions,Clouds,dailyrainin,SoftwareType,DateUTC
2013-03-31 00:01:00,48.0,43.0,-100.00,WSW,251,0.0,1.0,84,-99.99,,,-99.99,,2013-03-31 07:01:00,
2013-03-31 00:12:00,48.0,44.0,-100.00,WSW,251,0.0,1.0,86,-99.99,,,-99.99,,2013-03-31 07:12:00,
2013-03-31 00:22:00,48.0,44.0,-100.00,SE,138,0.0,1.0,86,-99.99,,,-99.99,,2013-03-31 07:22:00,
2013-03-31 00:32:00,47.0,43.0,-100.00,West,271,0.0,1.0,86,-99.99,,,-99.99,,2013-03-31 07:32:00,
2013-03-31 00:42:00,47.0,43.0,-100.00,West,271,0.0,1.0,86,-99.99,,,-99.99,,2013-03-31 07:42:00,
2013-03-31 00:52:00,48.0,44.0,-100.00,North,353,0.0,1.0,87,-99.99,,,-99.99,,2013-03-31 07:52:00,
2013-03-31 01:01:00,48.0,45.0,-100.00,North,1,1.0,1.0,88,-99.99,,,-99.99,,2013-03-31 08:01:00,
2013-03-31 01:12:00,48.0,45.0,-100.00,NNE,32,1.0,1.0,88,-99.99,,,-99.99,,2013-03-31 08:12:00,
2013-03-31 01:21:00,48.0,45.0,-100.00,NE,40,1.0,1.0,88,-99.99,,,-99.99,,2013-03-31 08:21:00,
2013-03-31 01:32:00,48.0,45.0,-100.00,NE,40,1.0,1.0,88,-99.99,,,-99.99,,2013-03-31 08:32:00,
2013-03-31 01:42:00,49.0,46.0,-100.00,North,359,0.0,1.0,88,-99.99,,,-99.99,,2013-03-31 08:42:00,
2013-03-31 01:52:00,49.0,45.0,-100.00,NNW,332,0.0,1.0,87,-99.99,,,-99.99,,2013-03-31 08:52:00,
2013-03-31 02:01:00,49.0,46.0,-100.00,WNW,300,0.0,1.0,88,-99.99,,,-99.99,,2013-03-31 09:01:00,
2013-03-31 02:12:00,49.0,46.0,-100.00,NE,52,0.0,1.0,90,-99.99,,,-99.99,,2013-03-31 09:12:00,
2013-03-31 02:21:00,49.0,47.0,-100.00,ENE,71,1.0,2.0,93,-99.99,,,-99.99,,2013-03-31 09:21:00,
2013-03-31 02:32:00,49.0,48.0,-100.00,ENE,59,1.0,2.0,95,-99.99,,,-99.99,,2013-03-31 09:32:00,
2013-03-31 02:42:00,49.0,48.0,-100.00,ENE,65,1.0,4.0,95,-99.99,,,-99.99,,2013-03-31 09:42:00,
2013-03-31 02:52:00,48.0,47.0,-100.00,ENE,57,1.0,3.0,96,-99.99,,,-99.99,,2013-03-31 09:52:00,
2013-03-31 03:03:00,48.0,47.0,-100.00,NNW,347,1.0,2.0,96,-99.99,,,-99.99,,2013-03-31 10:03:00,
2013-03-31 03:12:00,48.0,47.0,-100.00,North,360,1.0,3.0,96,-99.99,,,-99.99,,2013-03-31 10:12:00,
2013-03-31 03:23:00,47.0,46.0,-100.00,NNE,20,0.0,1.0,96,-99.99,,,-99.99,,2013-03-31 10:23:00,
2013-03-31 03:32:00,47.0,46.0,-100.00,North,354,0.0,1.0,96,-99.99,,,-99.99,,2013-03-31 10:32:00,
2013-03-31 03:42:00,46.0,45.0,-100.00,NE,41,1.0,2.0,96,-99.99,,,-99.99,,2013-03-31 10:42:00,
2013-03-31 03:52:00,47.0,46.0,-100.00,ENE,68,1.0,1.0,97,-99.99,,,-99.99,,2013-03-31 10:52:00,
2013-03-31 04:02:00,47.0,46.0,-100.00,NW,326,1.0,1.0,96,-99.99,,,-99.99,,2013-03-31 11:02:00,
2013-03-31 04:12:00,47.0,46.0,-100.00,North,3,1.0,2.0,96,-99.99,,,-99.99,,2013-03-31 11:12:00,
2013-03-31 04:22:00,47.0,46.0,-100.00,NE,43,1.0,2.0,95,-99.99,,,-99.99,,2013-03-31 11:22:00,
2013-03-31 04:32:00,48.0,46.0,-100.00,NNE,17,1.0,3.0,94,-99.99,,,-99.99,,2013-03-31 11:32:00,
2013-03-31 04:42:00,48.0,46.0,-100.00,NW,314,1.0,2.0,92,-99.99,,,-99.99,,2013-03-31 11:42:00,
2013-03-31 04:52:00,48.0,45.0,-100.00,NNW,340,0.0,1.0,91,-99.99,,,-99.99,,2013-03-31 11:52:00,
2013-03-31 05:02:00,49.0,46.0,-100.00,NE,42,1.0,1.0,90,-99.99,,,-99.99,,2013-03-31 12:02:00,
2013-03-31 05:12:00,49.0,46.0,-100.00,NE,48,1.0,2.0,88,-99.99,,,-99.99,,2013-03-31 12:12:00,
2013-03-31 05:22:00,49.0,45.0,-100.00,NW,305,1.0,2.0,87,-99.99,,,-99.99,,2013-03-31 12:22:00,
2013-03-31 05:32:00,49.0,46.0,-100.00,NNW,330,0.0,1.0,88,-99.99,,,-99.99,,2013-03-31 12:32:00,
2013-03-31 05:42:00,49.0,46.0,-100.00,NNW,330,0.0,1.0,88,-99.99,,,-99.99,,2013-03-31 12:42:00,
2013-03-31 05:52:00,49.0,45.0,-100.00,NNE,17,1.0,3.0,86,-99.99,,,-99.99,,2013-03-31 12:52:00,
2013-03-31 06:02:00,49.0,45.0,-100.00,NNE,17,1.0,3.0,86,-99.99,,,-99.99,,2013-03-31 13:02:00,
2013-03-31 06:12:00,49.0,45.0,-100.00,North,356,1.0,2.0,85,-99.99,,,-99.99,,2013-03-31 13:12:00,
2013-03-31 06:22:00,48.0,44.0,-100.00,WNW,296,1.0,2.0,86,-99.99,,,-99.99,,2013-03-31 13:22:00,
2013-03-31 06:32:00,48.0,44.0,-100.00,NE,40,1.0,2.0,86,-99.99,,,-99.99,,2013-03-31 13:32:00,
2013-03-31 06:42:00,48.0,44.0,-100.00,NE,40,1.0,2.0,86,-99.99,,,-99.99,,2013-03-31 13:42:00,
2013-03-31 06:52:00,47.0,43.0,-100.00,WSW,254,0.0,1.0,87,-99.99,,,-99.99,,2013-03-31 13:52:00,
2013-03-31 07:02:00,47.0,43.0,-100.00,WSW,254,0.0,1.0,87,-99.99,,,-99.99,,2013-03-31 14:02:00,
2013-03-31 07:11:00,47.0,44.0,-100.00,NNW,347,0.0,2.0,90,-99.99,,,-99.99,,2013-03-31 14:11:00,
2013-03-31 07:22:00,47.0,44.0,-100.00,North,355,0.0,1.0,90,-99.99,,,-99.99,,2013-03-31 14:22:00,
2013-03-31 07:32:00,47.0,45.0,-100.00,ENE,57,1.0,1.0,91,-99.99,,,-99.99,,2013-03-31 14:32:00,
2013-03-31 07:42:00,48.0,45.0,-100.00,NNE,14,1.0,2.0,89,-99.99,,,-99.99,,2013-03-31 14:42:00,
2013-03-31 07:52:00,48.0,44.0,-100.00,NW,317,1.0,3.0,87,-99.99,,,-99.99,,2013-03-31 14:52:00,
2013-03-31 08:02:00,49.0,44.0,-100.00,NW,325,1.0,3.0,84,-99.99,,,-99.99,,2013-03-31 15:02:00,
2013-03-31 08:12:00,50.0,44.0,-100.00,NW,316,1.0,3.0,80,-99.99,,,-99.99,,2013-03-31 15:12:00,
2013-03-31 08:21:00,52.0,45.0,-100.00,NNW,333,1.0,2.0,76,-99.99,,,-99.99,,2013-03-31 15:21:00,
2013-03-31 08:33:00,53.0,45.0,-100.00,WNW,295,1.0,2.0,73,-99.99,,,-99.99,,2013-03-31 15:33:00,
2013-03-31 08:43:00,55.0,45.0,-100.00,WNW,296,1.0,3.0,70,-99.99,,,-99.99,,2013-03-31 15:43:00,
2013-03-31 08:53:00,56.0,46.0,-100.00,WNW,290,1.0,3.0,68,-99.99,,,-99.99,,2013-03-31 15:53:00,
2013-03-31 09:02:00,58.0,46.0,-100.00,WNW,296,1.0,2.0,65,-99.99,,,-99.99,,2013-03-31 16:02:00,
2013-03-31 09:13:00,58.0,46.0,-100.00,WNW,296,1.0,2.0,65,-99.99,,,-99.99,,2013-03-31 16:13:00,
2013-03-31 09:22:00,60.0,48.0,-100.00,SSW,194,1.0,3.0,64,-99.99,,,-99.99,,2013-03-31 16:22:00,
2013-03-31 09:32:00,60.0,48.0,-100.00,SSW,204,1.0,3.0,64,-99.99,,,-99.99,,2013-03-31 16:32:00,
2013-03-31 09:42:00,61.0,48.0,-100.00,WSW,256,1.0,4.0,62,-99.99,,,-99.99,,2013-03-31 16:42:00,
2013-03-31 09:52:00,62.0,48.0,-100.00,WSW,243,1.0,5.0,61,-99.99,,,-99.99,,2013-03-31 16:52:00,
2013-03-31 10:02:00,63.0,49.0,-100.00,WSW,241,2.0,5.0,60,-99.99,,,-99.99,,2013-03-31 17:02:00,
2013-03-31 10:12:00,64.0,49.0,-100.00,SW,224,2.0,9.0,59,-99.99,,,-99.99,,2013-03-31 17:12:00,
2013-03-31 10:22:00,64.0,49.0,-100.00,SSW,204,2.0,7.0,58,-99.99,,,-99.99,,2013-03-31 17:22:00,
2013-03-31 10:32:00,64.0,49.0,-100.00,SW,224,4.0,8.0,59,-99.99,,,-99.99,,2013-03-31 17:32:00,
2013-03-31 10:42:00,65.0,51.0,-100.00,SW,218,4.0,8.0,60,-99.99,,,-99.99,,2013-03-31 17:42:00,
2013-03-31 10:52:00,63.0,50.0,-100.00,WSW,246,4.0,9.0,63,-99.99,,,-99.99,,2013-03-31 17:52:00,
2013-03-31 11:02:00,64.0,52.0,-100.00,SSW,209,3.0,7.0,64,-99.99,,,-99.99,,2013-03-31 18:02:00,
2013-03-31 11:12:00,65.0,52.0,-100.00,SSW,207,3.0,8.0,62,-99.99,,,-99.99,,2013-03-31 18:12:00,
2013-03-31 11:22:00,64.0,51.0,-100.00,SW,231,2.0,5.0,62,-99.99,,,-99.99,,2013-03-31 18:22:00,
2013-03-31 11:32:00,65.0,51.0,-100.00,SSW,201,2.0,7.0,61,-99.99,,,-99.99,,2013-03-31 18:32:00,
2013-03-31 11:42:00,66.0,51.0,-100.00,South,175,1.0,4.0,59,-99.99,,,-99.99,,2013-03-31 18:42:00,
2013-03-31 11:52:00,66.0,51.0,-100.00,SSW,210,2.0,6.0,59,-99.99,,,-99.99,,2013-03-31 18:52:00,
2013-03-31 12:02:00,67.0,51.0,-100.00,SSW,197,1.0,5.0,56,-99.99,,,-99.99,,2013-03-31 19:02:00,
2013-03-31 12:12:00,66.0,51.0,-100.00,West,262,3.0,6.0,58,-99.99,,,-99.99,,2013-03-31 19:12:00,
2013-03-31 12:22:00,68.0,52.0,-100.00,ESE,122,2.0,5.0,56,-99.99,,,-99.99,,2013-03-31 19:22:00,
2013-03-31 12:32:00,68.0,52.0,-100.00,SW,220,3.0,8.0,56,-99.99,,,-99.99,,2013-03-31 19:32:00,
2013-03-31 12:42:00,69.0,52.0,-100.00,SSW,213,4.0,10.0,55,-99.99,,,-99.99,,2013-03-31 19:42:00,
2013-03-31 12:53:00,67.0,52.0,-100.00,SW,230,5.0,14.0,59,-99.99,,,-99.99,,2013-03-31 19:53:00,
2013-03-31 13:02:00,67.0,52.0,-100.00,SW,235,4.0,9.0,58,-99.99,,,-99.99,,2013-03-31 20:02:00,
2013-03-31 13:12:00,67.0,52.0,-100.00,WSW,246,6.0,11.0,59,-99.99,,,-99.99,,2013-03-31 20:12:00,
2013-03-31 13:22:00,67.0,51.0,-100.00,SW,234,5.0,11.0,57,-99.99,,,-99.99,,2013-03-31 20:22:00,
2013-03-31 13:32:00,70.0,52.0,-100.00,SSW,200,3.0,9.0,52,-99.99,,,-99.99,,2013-03-31 20:32:00,
2013-03-31 13:42:00,68.0,50.0,-100.00,SSW,201,3.0,8.0,53,-99.99,,,-99.99,,2013-03-31 20:42:00,
2013-03-31 13:52:00,69.0,51.0,-100.00,SSW,204,3.0,7.0,52,-99.99,,,-99.99,,2013-03-31 20:52:00,
2013-03-31 14:02:00,69.0,51.0,-100.00,SW,215,4.0,9.0,52,-99.99,,,-99.99,,2013-03-31 21:02:00,
2013-03-31 14:12:00,69.0,50.0,-100.00,SSW,204,3.0,9.0,50,-99.99,,,-99.99,,2013-03-31 21:12:00,
2013-03-31 14:21:00,69.0,50.0,-100.00,South,176,3.0,7.0,51,-99.99,,,-99.99,,2013-03-31 21:21:00,
2013-03-31 14:33:00,69.0,51.0,-100.00,SSW,206,5.0,13.0,52,-99.99,,,-99.99,,2013-03-31 21:33:00,
2013-03-31 14:43:00,68.0,52.0,-100.00,WSW,238,7.0,13.0,56,-99.99,,,-99.99,,2013-03-31 21:43:00,
2013-03-31 14:53:00,68.0,51.0,-100.00,SSW,213,5.0,16.0,55,-99.99,,,-99.99,,2013-03-31 21:53:00,
2013-03-31 15:03:00,68.0,51.0,-100.00,SSW,213,5.0,16.0,55,-99.99,,,-99.99,,2013-03-31 22:03:00,
2013-03-31 15:12:00,69.0,52.0,-100.00,SSW,201,5.0,13.0,54,-99.99,,,-99.99,,2013-03-31 22:12:00,
2013-03-31 15:23:00,68.0,53.0,-100.00,SW,232,7.0,14.0,58,-99.99,,,-99.99,,2013-03-31 22:23:00,
2013-03-31 15:33:00,67.0,52.0,-100.00,WSW,245,8.0,13.0,58,-99.99,,,-99.99,,2013-03-31 22:33:00,
2013-03-31 15:42:00,67.0,53.0,-100.00,WSW,240,7.0,16.0,60,-99.99,,,-99.99,,2013-03-31 22:42:00,
2013-03-31 15:52:00,67.0,53.0,-100.00,SW,236,7.0,13.0,60,-99.99,,,-99.99,,2013-03-31 22:52:00,
2013-03-31 16:02:00,67.0,53.0,-100.00,WSW,241,6.0,13.0,60,-99.99,,,-99.99,,2013-03-31 23:02:00,
2013-03-31 16:12:00,66.0,52.0,-100.00,WSW,242,6.0,13.0,61,-99.99,,,-99.99,,2013-03-31 23:12:00,
2013-03-31 16:22:00,66.0,52.0,-100.00,WSW,240,6.0,12.0,61,-99.99,,,-99.99,,2013-03-31 23:22:00,
2013-03-31 16:32:00,65.0,52.0,-100.00,SW,231,6.0,14.0,63,-99.99,,,-99.99,,2013-03-31 23:32:00,
2013-03-31 16:42:00,64.0,52.0,-100.00,SW,228,5.0,10.0,64,-99.99,,,-99.99,,2013-03-31 23:42:00,
2013-03-31 16:52:00,63.0,51.0,-100.00,SSW,205,4.0,10.0,66,-99.99,,,-99.99,,2013-03-31 23:52:00,
2013-03-31 17:02:00,62.0,52.0,-100.00,SSW,210,4.0,9.0,69,-99.99,,,-99.99,,2013-04-01 00:02:00,
2013-03-31 17:12:00,62.0,52.0,-100.00,SSW,213,4.0,10.0,70,-99.99,,,-99.99,,2013-04-01 00:12:00,
2013-03-31 17:22:00,62.0,53.0,-100.00,SW,221,4.0,9.0,73,-99.99,,,-99.99,,2013-04-01 00:22:00,
2013-03-31 17:32:00,61.0,53.0,-100.00,WSW,239,5.0,12.0,75,-99.99,,,-99.99,,2013-04-01 00:32:00,
2013-03-31 17:42:00,61.0,53.0,-100.00,WSW,239,5.0,12.0,75,-99.99,,,-99.99,,2013-04-01 00:42:00,
2013-03-31 17:52:00,61.0,54.0,-100.00,SSW,213,2.0,5.0,78,-99.99,,,-99.99,,2013-04-01 00:52:00,
2013-03-31 18:02:00,60.0,54.0,-100.00,SSW,205,3.0,6.0,81,-99.99,,,-99.99,,2013-04-01 01:02:00,
2013-03-31 18:12:00,60.0,54.0,-100.00,SW,228,3.0,7.0,82,-99.99,,,-99.99,,2013-04-01 01:12:00,
2013-03-31 18:22:00,60.0,54.0,-100.00,SW,219,2.0,7.0,82,-99.99,,,-99.99,,2013-04-01 01:22:00,
2013-03-31 18:32:00,60.0,54.0,-100.00,SSW,208,3.0,8.0,80,-99.99,,,-99.99,,2013-04-01 01:32:00,
2013-03-31 18:42:00,60.0,53.0,-100.00,SSW,213,3.0,9.0,79,-99.99,,,-99.99,,2013-04-01 01:42:00,
2013-03-31 18:52:00,60.0,53.0,-100.00,SW,221,3.0,8.0,78,-99.99,,,-99.99,,2013-04-01 01:52:00,
2013-03-31 19:02:00,60.0,53.0,-100.00,SW,224,4.0,8.0,79,-99.99,,,-99.99,,2013-04-01 02:02:00,
2013-03-31 19:12:00,60.0,53.0,-100.00,SW,217,2.0,6.0,79,-99.99,,,-99.99,,2013-04-01 02:12:00,
2013-03-31 19:22:00,60.0,54.0,-100.00,SW,228,4.0,9.0,81,-99.99,,,-99.99,,2013-04-01 02:22:00,
2013-03-31 19:32:00,59.0,53.0,-100.00,SW,217,2.0,5.0,81,-99.99,,,-99.99,,2013-04-01 02:32:00,
2013-03-31 19:42:00,59.0,54.0,-100.00,SW,222,2.0,5.0,82,-99.99,,,-99.99,,2013-04-01 02:42:00,
2013-03-31 19:52:00,59.0,54.0,-100.00,SW,214,2.0,4.0,82,-99.99,,,-99.99,,2013-04-01 02:52:00,
2013-03-31 20:02:00,59.0,54.0,-100.00,SW,234,3.0,7.0,82,-99.99,,,-99.99,,2013-04-01 03:02:00,
2013-03-31 20:12:00,59.0,54.0,-100.00,SSW,212,1.0,4.0,82,-99.99,,,-99.99,,2013-04-01 03:12:00,
2013-03-31 20:22:00,58.0,53.0,-100.00,SSW,196,1.0,6.0,83,-99.99,,,-99.99,,2013-04-01 03:22:00,
2013-03-31 20:33:00,58.0,53.0,-100.00,SSW,196,1.0,2.0,84,-99.99,,,-99.99,,2013-04-01 03:33:00,
2013-03-31 20:43:00,58.0,54.0,-100.00,South,191,1.0,2.0,86,-99.99,,,-99.99,,2013-04-01 03:43:00,
2013-03-31 20:52:00,58.0,54.0,-100.00,South,182,0.0,1.0,86,-99.99,,,-99.99,,2013-04-01 03:52:00,
2013-03-31 21:02:00,58.0,54.0,-100.00,South,172,0.0,1.0,86,-99.99,,,-99.99,,2013-04-01 04:02:00,
2013-03-31 21:13:00,58.0,54.0,-100.00,South,187,0.0,1.0,86,-99.99,,,-99.99,,2013-04-01 04:13:00,
2013-03-31 21:23:00,58.0,54.0,-100.00,SE,137,0.0,1.0,86,-99.99,,,-99.99,,2013-04-01 04:23:00,
2013-03-31 21:32:00,58.0,54.0,-100.00,SE,138,0.0,1.0,86,-99.99,,,-99.99,,2013-04-01 04:32:00,
2013-03-31 21:43:00,58.0,54.0,-100.00,SSW,203,0.0,2.0,87,-99.99,,,-99.99,,2013-04-01 04:43:00,
2013-03-31 21:52:00,58.0,54.0,-100.00,SW,228,2.0,5.0,86,-99.99,,,-99.99,,2013-04-01 04:52:00,
2013-03-31 22:02:00,58.0,53.0,-100.00,WSW,237,3.0,8.0,84,-99.99,,,-99.99,,2013-04-01 05:02:00,
2013-03-31 22:12:00,58.0,53.0,-100.00,SW,226,2.0,5.0,84,-99.99,,,-99.99,,2013-04-01 05:12:00,
2013-03-31 22:22:00,57.0,53.0,-100.00,SW,232,2.0,6.0,85,-99.99,,,-99.99,,2013-04-01 05:22:00,
2013-03-31 22:32:00,57.0,53.0,-100.00,SW,232,3.0,6.0,85,-99.99,,,-99.99,,2013-04-01 05:32:00,
2013-03-31 22:42:00,57.0,52.0,-100.00,WSW,238,3.0,5.0,84,-99.99,,,-99.99,,2013-04-01 05:42:00,
2013-03-31 22:52:00,57.0,52.0,-100.00,West,261,2.0,6.0,84,-99.99,,,-99.99,,2013-04-01 05:52:00,
2013-03-31 23:01:00,57.0,52.0,-100.00,West,265,1.0,2.0,84,-99.99,,,-99.99,,2013-04-01 06:01:00,
2013-03-31 23:12:00,57.0,52.0,-100.00,West,266,0.0,1.0,84,-99.99,,,-99.99,,2013-04-01 06:12:00,
2013-03-31 23:22:00,57.0,52.0,-100.00,West,259,2.0,5.0,84,-99.99,,,-99.99,,2013-04-01 06:22:00,
2013-03-31 23:32:00,57.0,52.0,-100.00,WSW,239,2.0,4.0,84,-99.99,,,-99.99,,2013-04-01 06:32:00,
2013-03-31 23:42:00,57.0,53.0,-100.00,WSW,244,2.0,6.0,85,-99.99,,,-99.99,,2013-04-01 06:42:00,
2013-03-31 23:52:00,57.0,53.0,-100.00,SW,231,1.0,3.0,85,-99.99,,,-99.99,,2013-04-01 06:52:00,